Overview Statistics Trail Chart Weather Telemetry Raw packets
 

This is the latest recevied weather packets stored in our database for station/object OE6JUE. If no packets are shown the sender has not sent any weather packets the latest 10 day(s).

<< 93 94 95 96 97 98 99 >>
Time Temp. Humidity Pressure Rain* Wind** Luminosity Snow
1787997814 26.11° C 34% 1019.5 hPa 0 mm - - -
1787997514 26.67° C 35% 1019.5 hPa 0 mm - - -
1787997214 26.67° C 35% 1019.5 hPa 0 mm - - -
1787996914 26.67° C 34% 1019.5 hPa 0 mm - - -
1787996614 26.67° C 38% 1019.6 hPa 0 mm - - -
1787996314 26.11° C 35% 1019.6 hPa 0 mm - - -
1787996014 26.67° C 35% 1019.5 hPa 0 mm - - -
1787995715 26.11° C 35% 1019.4 hPa 0 mm - - -
1787995417 26.11° C 38% 1019.5 hPa 0 mm - - -
1787995114 26.67° C 37% 1019.4 hPa 0 mm - - -
1787994814 26.67° C 38% 1019.3 hPa 0 mm - - -
1787994514 26.11° C 40% 1019.3 hPa 0 mm - - -
1787994214 26.11° C 38% 1019.3 hPa 0 mm - - -
1787993914 26.11° C 40% 1019.3 hPa 0 mm - - -
1787993614 25.56° C 42% 1019.4 hPa 0 mm - - -
1787993314 25° C 42% 1019.2 hPa 0 mm - - -
1787993014 24.44° C 41% 1019.3 hPa 0 mm - - -
1787992714 25° C 42% 1019.4 hPa 0 mm - - -
1787992414 25.56° C 40% 1019.3 hPa 0 mm - - -
1787992114 25.56° C 41% 1019.1 hPa 0 mm - - -
1787991814 25.56° C 41% 1019.2 hPa 0 mm - - -
1787991514 25° C 41% 1019 hPa 0 mm - - -
1787991214 24.44° C 41% 1018.9 hPa 0 mm - - -
1787990914 24.44° C 41% 1018.9 hPa 0 mm - - -
1787990614 23.89° C 42% 1018.8 hPa 0 mm - - -

* Rain latest hour (hover to see other rain measurements)
** Current wind speed in m/s (hover to see current wind gust speed)